FW1829 Weather Reports


time (UTC)temp
C
wind
direction
speed
KPH
gust
KPH
rain 1hr
cm
rain 24hr
cm
rain mn
cm
humidity
%
barometer
mb
20260505041509 18 284 0.0 6.4 0.00 0.00 0.00 51 1002.1
20260505040008 19 284 0.0 4.8 0.00 0.00 0.00 50 1002.0
20260505034507 19 284 3.2 11.3 0.00 0.00 0.00 49 1002.0
20260505033007 20 284 3.2 11.3 0.00 0.00 0.00 46 1002.1
20260505031506 20 284 6.4 14.5 0.00 0.00 0.00 44 1001.9
20260505030005 21 284 11.3 19.3 0.00 0.00 0.00 42 1001.7
20260505024504 20 288 4.8 12.9 0.00 0.00 0.00 42 1001.4
20260505023004 20 288 4.8 11.3 0.00 0.00 0.00 43 1001.3
20260505021504 21 288 4.8 12.9 0.00 0.00 0.00 43 1001.4
20260505020003 21 287 8.0 16.1 0.00 0.00 0.00 42 1001.5
20260505014503 22 284 8.0 16.1 0.00 0.00 0.00 40 1001.1
20260505013001 23 252 9.7 19.3 0.00 0.00 0.00 36 1000.7
20260505011601 23 281 8.0 22.5 0.00 0.00 0.00 34 1000.4
20260505010103 25 277 8.0 16.1 0.00 0.00 0.00 30 1000.7
20260505004557 26 271 3.2 17.7 0.00 0.00 0.00 28 1000.9
20260505003101 26 233 4.8 12.9 0.00 0.00 0.00 26 1001.3
20260505001558 27 209 1.6 12.9 0.00 0.00 0.00 25 1001.1
20260505000058 27 120 3.2 9.7 0.00 0.00 0.00 24 1000.9
20260504234552 28 114 4.8 12.9 0.00 0.00 0.00 23 1001.1
20260504233054 28 121 6.4 19.3 0.00 0.00 0.00 21 1001.3
20260504231552 28 279 1.6 6.4 0.00 0.00 0.00 20 1001.2
20260504230051 29 279 1.6 8.0 0.00 0.00 0.00 20 1001.1
20260504224550 29 279 0.0 8.0 0.00 0.00 0.00 21 1001.1
20260504223101 30 279 1.6 4.8 0.00 0.00 0.00 18 1001.2
20260504221548 29 279 3.2 14.5 0.00 0.00 0.00 20 1001.4
20260504220047 28 285 8.0 12.9 0.00 0.00 0.00 21 1001.3
20260504214547 29 284 3.2 17.7 0.00 0.00 0.00 20 1001.3
20260504213046 30 288 8.0 17.7 0.00 0.00 0.00 17 1001.5
20260504211620 31 284 9.7 20.9 0.00 0.00 0.00 17 1001.5
20260504210046 31 277 8.0 19.3 0.00 0.00 0.00 16 1001.8
20260504204542 31 283 1.6 12.9 0.00 0.00 0.00 16 1001.9
20260504203039 32 288 4.8 16.1 0.00 0.00 0.00 16 1002.0
20260504201538 31 283 4.8 20.9 0.00 0.00 0.00 18 1002.4
20260504200035 31 284 1.6 11.3 0.00 0.00 0.00 18 1002.7
20260504194534 31 284 4.8 14.5 0.00 0.00 0.00 18 1002.9
20260504193035 32 275 3.2 17.7 0.00 0.00 0.00 18 1003.0
20260504191534 31 277 3.2 19.3 0.00 0.00 0.00 20 1003.3
20260504190027 31 298 3.2 20.9 0.00 0.00 0.00 19 1003.7
20260504184536 31 293 3.2 16.1 0.00 0.00 0.00 20 1003.8
20260504183023 30 243 1.6 11.3 0.00 0.00 0.00 20 1004.0
20260504181522 31 213 0.0 9.7 0.00 0.00 0.00 19 1004.1
20260504180021 31 210 1.6 8.0 0.00 0.00 0.00 17 1004.3
20260504174518 31 208 1.6 9.7 0.00 0.00 0.00 13 1004.5
20260504173016 31 207 1.6 4.8 0.00 0.00 0.00 13 1004.7
20260504171514 31 207 1.6 8.0 0.00 0.00 0.00 15 1004.6
20260504081537 11 360 0.0 3.2 0.00 0.00 0.00 48 1006.4
20260504050107 13 360 0.0 4.8 0.00 0.00 0.00 42 1007.5
20260504044606 15 360 1.6 4.8 0.00 0.00 0.00 38 1007.7
20260504043004 17 360 1.6 6.4 0.00 0.00 0.00 33 1007.8